Flag for Germany Weather past 2 weeks in Biberach an der Riss, Baden-Württemberg, Germany

Now
63 °F

Light rain. More clouds than sun.


Feels Like: 63 °F
Forecast: 59 / 72 °F
Wind: 8 mph from West

Location: Laupheim Airport

Current Time: Jul 26, 2014 at 10:06:31 PM

Latest Report: Jul 26, 2014 at 9:20 PM


Visibility: N/A

Pressure: 29.98 "Hg

Humidity: 88%

Dew point: 59 °F

Location of Biberach an der RissLocation

Historic Weather in Biberach an der Riss — Graph

°F

Biberach an der Riss temperature yesterday

Maximum temperature yesterday: 79 °F (at 5:20 PM)
Minimum temperature yesterday: 55 °F (at 4:20 AM)
Average temperature yesterday: 67 °F

Past Weeks' High & Low Weather Summary

 TemperatureHumidityPressure
High90 °F (Jul 19, 5:20 PM)100% (Jul 15, 1:20 AM)30.21 "Hg (Jul 15, 1:20 AM)
Low55 °F (Jul 16, 4:20 AM)29% (Jul 19, 5:20 PM)29.86 "Hg (Jul 13, 5:20 PM)
Average67 °F73%30.00 "Hg
* Reported Jul 11 8:20 PM — Jul 26 8:20 PM, Biberach an der Riss, Weather by CustomWeather, © 2014

Note: Actual official high and low records may vary slightly from our data, if they occured in-between our weather recording intervals... More about our weather records

Advertising

Biberach an der Riss weather history for previous 24 hours

 ConditionsComfort  
Time TempWeatherWind HumidityBarometerVisibility
8:20 PM
Jul 26
66 °FOvercast.7 mph78%29.95 "HgN/A
7:20 PM68 °FOvercast.5 mph73%29.95 "HgN/A
6:20 PM68 °FMore clouds than sun.5 mph73%29.92 "HgN/A
5:20 PM68 °FMore clouds than sun.5 mph69%29.92 "HgN/A
4:20 PM68 °FMore clouds than sun.5 mph69%29.92 "HgN/A
3:20 PM68 °FMore clouds than sun.2 mph69%29.95 "HgN/A
2:20 PM68 °FMore clouds than sun.5 mph73%29.95 "HgN/A
1:20 PM66 °FPartly sunny.2 mph78%29.95 "HgN/A
12:20 PM66 °FBroken clouds.6 mph83%29.95 "HgN/A
11:20 AM64 °FLight rain. Broken clouds.5 mph88%29.95 "Hg6 mi
10:20 AM63 °FLight rain. Overcast.3 mph88%29.95 "Hg5 mi
9:20 AM61 °FRain showers. More clouds than sun.6 mph94%29.95 "Hg5 mi
8:20 AM63 °FOvercast.3 mph88%29.92 "HgN/A
7:20 AM63 °FOvercast.1 mph88%29.92 "HgN/A
6:20 AM61 °FPartly cloudy.5 mph94%29.92 "HgN/A
5:20 AM61 °FLight rain. Passing clouds.2 mph88%29.92 "HgN/A
4:20 AM63 °FPartly cloudy.2 mph83%29.92 "HgN/A
3:20 AM63 °FPartly cloudy.5 mph83%29.92 "HgN/A
2:20 AM63 °FPassing clouds.5 mph83%29.95 "HgN/A
1:20 AM61 °FPassing clouds.No wind88%29.92 "HgN/A
12:20 AM63 °FPassing clouds.2 mph83%29.95 "HgN/A
11:20 PM
Jul 25
64 °FPassing clouds.3 mph78%29.92 "HgN/A
10:20 PM66 °FPassing clouds.3 mph73%29.92 "HgN/A
Weather by CustomWeather, © 2014

See weather overviewHow to use our weather pages